Location: Buch
(49.7331°N, 12.1098°E)
Time: 01:13:05
(UTC+00:00)

Cosmos 44 - Pass Details

Date: 12 May 2021
Orbit: 571 x 791 km, 65.1° (Epoch: 23 June)

Event Time Altitude Azimuth Distance (km) Brightness Sun altitude
Rises 20:38:13 0° 321° (NW) 3,297 8.8 -14.3°
Reaches altitude 10° 20:40:43 10° 325° (NW) 2,364 7.5 -14.5°
Maximum altitude 20:46:07 59° 45° (NE) 901 3.9 -15.0°
Enters shadow 20:49:38 21° 119° (ESE) 1,680 4.7 -15.4°
